Location: Taupo
(38.6830°S, 176.0830°E)
Time: 18:14:49
(UTC+12:00)

ISS - Visible Passes

Search period start: 19 April 2024 00:00
Search period end: 29 April 2024 00:00
Orbit: 412 x 419 km, 51.6° (Epoch: 18 April)

Date Brightness Start Highest point End Pass type
(mag) Time Alt. Az. Time Alt. Az. Time Alt. Az.
19 Apr -1.7 18:43:20 10° W 18:46:07 22° SSW 18:48:53 10° SSE visible
20 Apr -0.9 19:33:33 10° SSW 19:34:43 11° SSW 19:34:58 11° S visible
21 Apr -1.1 18:43:45 10° SW 18:45:34 14° SSW 18:47:25 10° SSE visible
23 Apr -1.0 18:44:36 10° SSW 18:45:00 10° S 18:45:23 10° S visible
26 Apr -0.9 19:30:48 10° SSW 19:31:06 11° SSW 19:31:06 11° SSW visible
27 Apr -1.3 18:42:03 10° S 18:43:19 12° SSE 18:43:54 11° SSE visible
28 Apr -1.2 19:28:39 10° SSW 19:29:34 15° SSW 19:29:34 15° SSW visible
